Date,TemperatureHighF,TemperatureAvgF,TemperatureLowF,DewpointHighF,DewpointAvgF,DewpointLowF,HumidityHigh,HumidityAvg,HumidityLow,PressureMaxIn,PressureMinIn,WindSpeedMaxMPH,WindSpeedAvgMPH,GustSpeedMaxMPH,PrecipitationSumIn
2013-1-1,30,25,21,30,24,18,99,96,93,30.09,29.99,7,1,21,0.00
2013-1-2,24,18,12,22,17,12,99,96,89,30.21,30.06,5,0,16,0.00
2013-1-3,28,18,9,26,17,9,99,96,80,30.19,30.08,7,1,16,0.00
2013-1-4,29,26,23,26,23,20,99,89,71,30.22,30.09,12,5,16,0.00
2013-1-5,35,28,23,30,27,22,99,93,79,30.33,30.11,6,1,15,3.03
2013-1-6,35,32,30,35,32,30,99,98,91,30.23,29.95,10,2,13,0.02
2013-1-7,36,30,26,33,29,26,99,95,79,30.44,30.23,9,1,12,0.01
2013-1-8,26,24,22,26,24,22,99,99,99,30.25,30.23,4,0,7,0.00
2013-1-9,45,40,33,42,36,31,99,87,68,30.49,30.17,9,4,15,0.07
2013-1-10,41,34,27,36,31,27,99,90,74,30.60,30.24,8,1,12,0.01
2013-1-11,51,44,38,51,42,30,99,92,72,30.24,29.87,8,2,16,0.54
2013-1-12,57,51,46,57,51,46,99,99,99,30.05,29.90,7,1,9,0.01
2013-1-13,60,52,36,60,52,36,99,99,99,30.02,29.77,9,2,20,0.00
2013-1-14,36,29,26,36,29,25,99,99,96,30.43,30.01,12,2,20,0.01
2013-1-15,32,28,26,28,26,24,99,93,74,30.41,30.10,5,0,7,0.00
2013-1-16,33,30,27,30,27,24,99,90,76,30.11,29.88,7,1,13,0.00
2013-1-17,34,31,25,33,29,22,99,91,78,30.24,29.98,12,2,13,0.00
2013-1-18,32,26,19,24,19,12,91,76,66,30.46,30.11,8,2,17,0.00
2013-1-19,49,40,32,34,29,23,76,64,55,30.11,29.71,12,3,21,0.00
2013-1-20,46,28,20,36,21,14,87,76,62,30.14,29.67,16,6,31,0.00
2013-1-21,21,17,9,16,13,6,99,84,71,30.12,29.91,11,4,22,0.00
2013-1-22,10,7,5,8,5,3,99,94,78,30.24,30.04,16,4,19,0.00
2013-1-23,16,10,5,13,8,5,99,94,81,30.25,30.05,5,1,9,0.00
2013-1-24,23,14,7,17,11,4,99,87,66,30.54,30.04,6,0,9,0.00
2013-1-25,21,15,11,18,14,9,99,93,87,30.49,30.01,8,1,11,0.00
2013-1-26,24,20,16,24,20,16,99,99,98,30.43,30.05,9,2,13,0.00
2013-1-27,31,22,11,27,20,11,99,91,72,30.50,30.25,8,1,13,0.00
2013-1-28,45,38,27,45,38,27,99,99,99,30.27,29.94,10,2,13,0.60
2013-1-29,57,48,37,56,48,37,99,99,99,30.06,29.68,7,1,17,0.27
2013-1-30,60,54,36,60,54,36,99,99,99,29.69,29.18,21,5,21,0.18
2013-1-31,36,22,17,36,20,14,99,92,77,29.84,29.26,17,7,21,0.06
2013-2-1,17,14,10,16,12,9,99,93,81,30.27,29.82,9,4,20,0.00
2013-2-2,24,17,11,24,16,9,99,96,90,30.26,29.95,6,1,13,0.00
2013-2-3,23,18,14,22,18,14,99,97,87,29.98,29.85,8,2,14,0.00
2013-2-4,29,21,15,27,20,15,99,97,90,30.01,29.86,6,1,10,0.00
2013-2-5,32,24,20,30,23,20,99,95,81,29.93,29.84,5,0,7,0.00
2013-2-6,32,24,18,27,20,14,99,85,63,30.32,29.93,7,1,16,0.00
2013-2-7,45,31,19,33,25,16,92,81,62,30.29,29.88,12,2,16,0.12
2013-2-8,37,30,24,37,30,24,99,98,92,30.22,29.74,14,4,24,0.30
2013-2-9,33,25,19,26,23,19,99,92,73,30.41,30.22,5,0,11,0.03
2013-2-10,47,33,21,33,26,20,99,76,50,30.31,29.84,13,2,21,0.01
2013-2-11,49,39,32,47,36,28,99,88,73,29.91,29.67,20,6,27,0.01
2013-2-12,34,30,27,30,28,26,98,89,82,30.07,29.91,10,2,16,0.00
2013-2-13,29,28,27,29,28,27,99,99,99,29.85,29.80,0,0,5,0.00
2013-2-14,36,32,24,36,32,24,99,99,93,29.88,29.79,18,2,19,0.00
2013-2-15,35,29,22,33,28,22,99,95,82,30.09,29.88,12,2,18,0.01
2013-2-16,29,24,19,25,21,17,99,90,68,30.07,29.95,5,0,9,0.03
2013-2-17,21,17,9,19,15,8,99,90,68,30.22,29.95,12,2,16,0.03
2013-2-18,42,26,9,34,20,8,98,81,60,30.24,29.76,10,2,15,0.05
2013-2-19,45,30,15,40,29,15,99,96,69,29.93,29.59,14,6,20,0.13
2013-2-20,21,18,14,18,16,14,99,92,79,30.19,29.93,13,6,20,0.01
2013-2-21,25,20,15,20,17,15,99,91,75,30.35,30.18,7,1,12,0.00
2013-2-22,36,28,17,36,28,17,99,98,94,30.28,29.93,13,4,21,0.09
2013-2-23,35,32,28,34,31,28,99,96,79,29.98,29.88,11,1,11,0.01
2013-2-24,34,29,25,30,27,24,99,93,77,30.14,29.88,11,2,16,0.00
2013-2-25,40,29,22,34,27,22,99,93,67,30.22,30.14,4,0,5,0.00
2013-2-26,36,34,30,36,33,27,99,94,76,29.97,29.52,16,7,23,0.50
2013-2-27,39,36,32,39,36,32,99,99,99,29.64,29.50,14,2,15,0.10
2013-2-28,33,31,29,33,31,29,99,99,99,29.88,29.58,9,2,13,0.06
2013-3-1,30,27,20,29,27,14,99,98,76,30.13,29.87,7,1,9,0.01
2013-3-2,30,25,21,28,24,21,99,98,90,30.00,29.96,5,0,9,0.00
2013-3-3,27,23,21,27,23,21,99,97,90,30.02,29.96,9,2,12,0.00
2013-3-4,34,25,19,26,21,19,99,87,64,30.12,30.02,10,1,14,0.07
2013-3-5,43,28,15,30,24,15,99,85,52,30.11,29.70,8,1,11,0.02
2013-3-6,44,35,31,34,31,28,99,84,65,30.17,29.70,7,1,11,0.01
2013-3-7,38,32,27,37,32,27,99,99,96,30.36,30.16,6,1,8,0.00
2013-3-8,36,29,25,35,29,25,99,99,94,30.46,30.35,4,0,6,0.00
2013-3-9,54,38,24,39,32,24,99,81,54,30.44,30.15,8,1,11,0.00
2013-3-10,47,46,45,34,32,32,63,59,57,30.15,30.07,9,1,12,0.00
2013-3-11,57,50,41,53,46,39,99,85,50,29.91,29.60,11,3,18,0.39
2013-3-12,40,35,32,40,34,30,99,97,91,29.98,29.76,10,4,13,0.18
2013-3-13,32,29,26,31,27,19,99,92,71,30.14,29.89,19,4,24,0.02
2013-3-14,36,29,24,26,22,19,90,77,64,30.23,30.11,14,3,22,0.08
2013-3-15,42,34,27,37,31,24,99,90,77,30.11,29.86,7,1,13,0.03
2013-3-16,35,31,28,35,31,28,99,99,99,30.01,29.68,5,0,7,0.01
2013-3-17,33,29,24,30,27,22,99,90,76,30.22,30.01,4,0,7,0.00
2013-3-18,40,32,24,40,31,22,99,96,90,30.19,29.61,16,5,23,0.00
2013-3-19,39,30,25,39,27,21,99,89,75,29.94,29.67,20,6,22,0.00
2013-3-20,28,26,21,27,23,20,99,87,76,29.95,29.88,9,3,17,0.00
2013-3-21,29,22,16,27,21,16,99,95,78,29.89,29.84,10,3,15,0.00
2013-3-22,37,27,23,29,25,22,99,92,70,30.01,29.88,10,2,12,0.00
2013-3-23,40,28,19,33,25,19,99,90,63,30.07,29.99,3,0,6,0.08
2013-3-24,35,31,23,29,26,23,99,81,66,29.97,29.54,8,2,49,0.00
2013-3-25,38,33,30,38,32,28,99,97,84,29.82,29.46,9,1,9,0.31
2013-3-26,39,33,31,38,33,31,99,98,87,30.09,29.82,8,1,14,0.15
2013-3-27,41,35,30,36,32,29,99,87,67,30.17,30.07,13,2,17,0.12
2013-3-28,42,36,32,35,33,32,99,89,73,30.27,30.16,10,1,14,0.06
2013-3-29,48,40,32,35,32,25,97,76,52,30.28,30.23,12,1,12,0.00
2013-3-30,57,42,30,34,29,23,79,61,39,30.25,30.01,4,0,9,0.00
2013-3-31,53,46,41,48,36,-100,99,74,56,30.01,29.70,8,1,12,0.06
2013-4-1,46,36,30,45,28,20,99,76,50,30.07,29.67,11,3,21,0.06
2013-4-2,38,31,25,27,21,16,91,67,47,30.20,30.06,15,2,18,0.00
2013-4-3,35,30,23,24,20,15,82,67,50,30.44,30.19,9,1,16,0.00
2013-4-4,22,22,21,17,16,16,81,79,76,30.40,30.34,0,0,0,0.00
2013-4-5,44,38,28,34,28,20,86,67,54,30.22,29.99,6,1,11,0.00
2013-4-6,45,30,23,24,20,17,80,68,43,30.28,30.21,6,1,13,0.00
2013-4-7,66,54,42,46,42,37,88,63,44,30.05,29.82,21,3,21,0.00
2013-4-8,68,52,35,57,45,35,99,78,51,30.08,29.85,10,2,19,0.32
2013-4-9,74,59,43,57,50,43,99,77,53,30.14,29.90,7,1,15,0.32
2013-4-10,68,56,44,65,54,44,99,92,74,29.98,29.83,7,0,12,0.94
2013-4-11,52,45,41,52,45,41,99,99,99,29.95,29.60,9,2,12,0.79
2013-4-12,55,45,39,55,44,38,99,98,93,29.86,29.48,16,3,21,0.41
2013-4-13,42,39,36,41,38,34,99,96,85,30.04,29.85,9,4,16,0.01
2013-4-14,56,42,30,41,37,30,99,83,58,30.15,30.00,7,1,12,0.01
2013-4-15,71,59,48,54,47,38,84,66,50,30.08,29.98,7,2,14,0.00
2013-4-16,66,55,47,65,54,47,99,96,84,30.23,29.99,11,2,13,0.15
2013-4-17,68,54,44,48,44,39,99,73,43,30.33,30.10,6,1,11,0.05
2013-4-18,84,70,56,65,59,47,99,73,41,30.10,29.73,14,4,21,0.00
2013-4-19,68,47,38,63,43,31,99,87,70,29.85,29.45,13,6,21,0.30
2013-4-20,43,37,33,35,31,27,99,81,62,30.42,29.85,11,4,20,0.05
2013-4-21,54,39,28,34,31,28,99,74,45,30.63,30.42,8,0,9,0.01
2013-4-22,68,50,34,43,36,29,86,59,39,30.49,30.26,8,2,14,0.00
2013-4-23,75,58,42,45,40,32,75,52,34,30.27,29.94,12,2,13,0.00
2013-4-24,62,47,36,58,45,36,99,93,53,30.16,29.76,7,2,13,0.69
2013-4-25,53,40,31,45,37,31,99,90,58,30.37,30.17,12,1,18,0.11
2013-4-26,61,46,32,43,36,32,99,72,38,30.50,30.37,5,0,8,0.01
2013-4-27,74,57,40,44,38,34,84,53,29,30.42,30.16,7,1,12,0.00
2013-4-28,57,54,51,56,48,37,99,83,48,30.16,29.92,8,2,13,0.27
2013-4-29,67,58,54,62,56,54,99,93,69,30.03,29.91,6,0,10,0.14
2013-4-30,79,64,51,64,56,51,99,78,45,30.17,30.03,8,2,14,0.01
2013-5-1,76,61,54,60,56,54,99,85,56,30.31,30.17,7,2,11,0.00
2013-5-2,82,71,55,53,45,38,60,40,28,30.37,30.22,7,2,13,0.00
2013-5-3,80,67,55,47,43,38,63,43,26,30.25,30.15,16,3,18,0.00
2013-5-4,76,64,52,47,43,40,72,49,29,30.21,30.12,11,3,17,0.00
2013-5-6,78,67,50,53,49,39,74,52,38,30.25,30.02,7,2,13,0.00
2013-5-7,78,66,56,60,56,52,99,73,42,30.09,30.01,7,1,11,0.00
2013-5-8,77,63,56,65,58,55,99,86,49,30.05,29.99,8,0,10,0.04
2013-5-9,78,66,54,63,51,39,99,67,25,30.03,29.97,6,0,10,0.02
2013-5-10,74,63,54,67,56,-100,99,84,46,30.01,29.81,7,0,13,0.16
2013-5-11,54,48,43,54,48,43,99,99,99,29.90,29.82,7,1,11,0.06
2013-5-12,49,42,36,43,36,-100,99,83,58,30.09,29.90,16,2,21,0.03
2013-5-13,53,42,35,33,31,28,85,65,45,30.21,30.07,8,1,13,0.01
2013-5-14,66,51,37,46,38,29,84,62,45,30.18,29.86,9,1,12,0.00
2013-5-15,82,66,53,63,54,43,96,66,33,29.88,29.74,12,2,18,0.00
2013-5-16,80,62,53,55,30,-100,96,58,26,30.04,29.82,6,0,13,0.00
2013-5-17,82,65,52,53,43,-100,82,56,32,30.19,30.04,4,0,6,0.00
2013-5-18,87,69,54,57,51,46,80,57,27,30.19,30.08,7,0,9,0.00
2013-5-19,84,73,61,69,64,61,99,77,52,30.13,30.01,8,1,10,0.00
2013-5-20,87,75,63,74,68,63,99,82,56,30.06,29.93,4,0,8,0.00
2013-5-21,87,76,69,75,69,65,99,81,52,29.97,29.85,4,0,10,0.00
2013-5-22,87,76,67,69,65,60,99,73,47,32.55,29.72,9,1,17,0.07
2013-5-23,73,60,42,67,59,42,99,96,73,30.01,29.75,8,0,22,0.08
2013-5-24,44,42,38,43,40,37,99,92,79,30.29,30.01,4,0,22,0.01
2013-5-25,60,48,35,46,39,35,99,75,47,30.34,30.25,6,0,21,0.16
2013-5-26,65,52,39,48,40,38,99,70,39,30.30,30.22,4,0,9,0.16
2013-5-27,61,52,42,53,46,41,99,83,54,30.26,30.05,5,0,11,0.09
2013-5-28,80,65,52,75,62,52,99,91,72,30.06,29.90,6,0,10,0.68
2013-5-29,85,75,69,71,66,62,99,74,52,30.06,29.93,7,1,14,0.09
2013-5-30,90,76,64,73,65,59,99,72,37,30.16,30.05,7,0,9,0.00
2013-5-31,67,67,66,67,67,66,99,99,99,30.07,29.94,4,0,9,0.26
2013-6-1,82,72,65,75,69,65,99,90,69,29.94,29.73,6,1,12,0.38
2013-6-2,76,68,60,69,62,-100,99,86,60,29.89,29.72,6,1,15,0.76
2013-6-3,66,57,47,60,49,39,99,78,41,30.04,29.89,5,0,8,0.00
2013-6-4,72,58,46,54,47,44,99,72,43,30.13,30.03,5,0,7,0.00
2013-6-5,79,63,50,57,51,47,99,69,38,30.12,29.91,3,0,8,0.00
2013-6-6,63,59,54,63,58,52,99,97,77,29.91,29.76,0,0,5,0.46
2013-6-7,59,56,54,59,56,54,99,99,99,29.85,29.79,0,0,0,0.01
2013-6-8,71,60,55,61,57,55,99,90,63,30.06,29.84,4,0,8,0.00
2013-6-9,80,66,54,65,60,54,99,81,50,30.11,29.95,6,0,8,0.00
2013-6-10,71,67,63,71,66,63,99,97,78,29.95,29.72,5,0,9,0.93
2013-6-11,75,67,62,69,65,62,99,93,68,29.87,29.73,8,1,13,0.03
2013-6-12,76,70,63,73,68,63,99,95,75,29.89,29.66,5,0,7,0.00
2013-6-13,71,64,60,70,63,58,99,94,65,29.82,29.45,14,1,17,0.35
2013-6-14,71,62,54,66,58,54,99,91,58,30.03,29.81,6,0,8,0.01
2013-6-15,81,65,50,64,55,50,99,76,42,30.09,29.95,4,0,11,0.00
2013-6-16,80,70,63,71,67,63,99,91,69,29.97,29.81,6,1,15,0.12
2013-6-17,85,71,61,72,64,60,99,80,47,29.92,29.86,6,0,9,0.01
2013-6-18,78,67,57,68,61,53,99,83,57,30.00,29.84,4,0,9,0.00
2013-6-19,77,63,52,59,53,51,99,74,43,30.14,29.99,5,0,6,0.00
2013-6-20,79,65,54,59,53,50,92,69,37,30.19,30.12,6,0,10,0.00
2013-6-22,89,85,76,71,69,68,80,59,52,30.14,30.01,5,0,9,0.00
2013-6-23,90,80,68,74,69,65,99,72,46,30.10,30.00,6,0,11,0.00
2013-6-24,88,78,66,72,67,64,99,73,47,30.09,29.96,5,0,10,0.00
2013-6-25,88,75,67,74,71,67,99,88,53,29.99,29.83,5,1,9,0.49
2013-6-26,84,74,66,75,70,66,99,88,64,29.90,29.77,3,0,10,0.32
2013-6-27,82,71,68,73,70,67,99,96,64,29.77,29.63,0,0,3,0.07
2013-6-28,79,70,63,74,67,63,99,91,63,29.63,29.47,7,0,11,0.01
2013-6-30,77,71,65,71,68,65,99,89,75,29.87,29.76,0,0,5,0.01
2013-7-1,69,67,65,69,67,65,99,99,99,29.89,29.85,0,0,4,0.00
2013-7-2,75,70,62,72,69,62,99,97,86,30.03,29.96,3,0,6,0.01
2013-7-3,87,74,65,76,68,65,99,83,55,30.11,30.02,4,0,8,0.01
2013-7-4,79,73,67,76,72,67,99,95,80,30.15,30.09,5,0,9,0.12
2013-7-5,78,74,68,75,72,68,99,94,83,30.12,30.06,4,0,7,0.02
2013-7-6,85,81,73,75,73,71,99,77,64,30.09,29.99,6,0,8,0.11
2013-7-7,79,72,67,73,69,65,99,91,67,30.06,29.97,4,0,10,0.36
2013-7-8,85,70,63,74,68,63,99,92,61,30.07,30.00,4,0,10,0.72
2013-7-9,86,74,68,81,72,68,99,95,71,30.04,29.91,3,0,9,0.08
2013-7-10,84,69,68,84,67,-100,99,97,96,29.94,29.75,4,0,8,2.55
2013-7-11,77,68,61,67,62,58,99,84,55,30.00,29.89,3,0,6,0.03
2013-7-12,81,68,58,71,64,58,99,90,55,30.09,30.00,0,0,7,0.00
2013-7-13,85,74,61,72,67,61,99,82,54,30.20,30.08,9,0,9,0.00
2013-7-14,89,77,67,79,72,67,99,87,56,30.25,30.19,3,0,8,0.00
2013-7-15,91,79,71,78,74,71,99,87,55,30.31,30.24,0,0,7,0.00
2013-7-16,86,77,73,81,75,73,99,95,77,30.30,30.24,0,0,7,0.00
2013-7-17,91,80,73,82,74,71,99,83,52,30.28,30.15,6,0,7,0.00
2013-7-18,92,82,73,82,75,72,99,82,55,30.16,30.00,6,0,9,0.00
2013-7-19,91,81,74,80,75,71,99,83,54,30.00,29.80,9,1,13,0.00
2013-7-20,79,72,67,77,70,-100,99,98,93,29.89,29.76,8,0,11,1.38
2013-7-21,82,74,67,76,69,67,99,87,64,29.95,29.88,2,0,5,0.02
2013-7-22,75,68,64,75,68,64,99,99,99,29.95,29.75,5,0,6,0.02
2013-7-23,81,70,63,77,68,63,99,94,68,29.77,29.64,5,0,10,0.44
2013-7-24,71,65,55,67,58,54,99,81,58,30.00,29.77,4,0,8,0.05
2013-7-25,78,64,52,58,55,52,99,75,45,30.07,29.99,5,0,8,0.00
2013-7-26,82,69,57,64,59,56,99,73,45,30.06,29.94,5,0,6,0.00
2013-7-27,69,66,64,69,65,61,99,97,85,29.94,29.77,2,0,7,0.36
2013-7-28,68,64,58,64,56,51,99,78,58,29.97,29.81,8,1,9,0.02
2013-7-29,69,61,54,64,57,54,99,88,62,30.15,29.97,6,0,11,0.02
2013-7-30,77,65,56,65,60,56,99,86,56,30.20,30.12,4,0,6,0.00
2013-7-31,78,69,61,69,64,61,99,86,62,30.12,29.90,3,0,9,0.00
2013-8-1,77,69,62,71,65,58,99,87,60,29.90,29.81,7,0,14,0.08
2013-8-2,74,66,58,68,62,58,99,88,60,29.95,29.85,9,1,11,0.66
2013-8-3,77,70,61,70,62,54,99,80,49,29.97,29.88,4,0,8,0.66
2013-8-4,71,65,60,62,59,56,99,82,63,30.09,29.96,5,0,8,0.01
2013-8-11,82,70,60,64,62,59,99,79,46,30.10,30.01,3,0,3,0.00
2013-8-12,79,68,62,72,66,62,99,92,71,30.04,29.82,3,0,5,0.00
2013-8-13,71,64,55,71,58,-100,99,86,61,29.95,29.77,5,0,10,0.00
2013-8-14,68,57,53,59,48,-100,99,82,59,30.11,29.95,3,0,9,0.00
2013-8-15,72,53,51,60,32,-100,99,75,54,30.15,30.08,5,0,7,0.00
2013-8-16,76,60,53,63,50,-100,99,80,50,30.16,30.09,0,0,0,0.00
2013-8-17,72,61,55,65,59,55,99,95,76,30.21,30.16,3,0,5,0.00
2013-8-21,88,74,63,71,65,59,99,76,41,30.16,30.02,5,0,6,0.00
2013-8-22,81,72,65,77,70,65,99,92,69,30.06,29.96,3,0,8,0.27
2013-8-23,83,72,60,72,64,54,99,79,41,30.15,29.99,0,0,4,0.01
2013-8-24,82,67,56,65,59,52,99,79,38,30.29,30.16,0,0,6,0.00
2013-8-25,83,69,58,64,58,-100,99,75,46,30.30,30.18,5,0,9,0.00
2013-8-26,84,73,64,70,65,63,97,76,50,30.19,29.98,6,0,13,0.00
2013-8-27,77,74,70,76,72,70,99,94,78,30.01,29.91,8,1,10,0.39
2013-10-1,63,61,58,62,60,58,99,97,89,29.96,29.95,0,0,0,0.00
2013-10-2,76,65,59,70,64,59,99,96,79,30.05,29.96,6,0,8,0.00
2013-10-3,77,67,59,72,66,59,99,95,78,30.05,29.96,5,0,8,0.00
2013-10-4,76,68,64,72,68,64,99,98,82,30.02,29.98,3,0,7,0.11
2013-10-5,74,68,64,74,68,64,99,99,99,30.03,29.92,0,0,0,0.16
2013-10-6,76,69,58,74,68,58,99,95,76,29.91,29.66,7,1,10,0.41
2013-10-7,57,52,45,57,50,45,99,92,72,30.07,29.69,6,0,12,1.28
2013-10-8,65,54,45,58,48,45,99,81,52,30.25,30.07,5,0,5,0.00
2013-10-9,66,53,44,53,47,44,99,83,53,30.28,30.18,5,0,7,0.00
2013-10-10,65,52,45,51,47,42,99,85,54,30.19,30.07,4,0,8,0.00
2013-10-11,71,55,47,56,51,47,99,87,52,30.09,30.01,0,0,5,0.00
2013-10-13,66,60,57,66,58,-100,99,97,99,30.25,30.09,6,0,6,0.00
2013-10-14,63,54,46,58,51,44,99,91,68,30.31,30.21,3,0,8,0.00
2013-10-15,62,56,45,62,56,45,99,99,97,30.21,29.89,3,0,6,0.02
2013-10-16,66,59,49,66,59,49,99,99,99,29.89,29.75,7,0,11,0.68
2013-10-17,54,46,42,54,46,42,99,99,97,29.86,29.72,8,0,10,0.14
2013-10-18,58,49,40,51,45,40,99,88,66,29.92,29.80,12,1,12,0.01
2013-10-19,49,44,39,47,44,39,99,98,90,29.86,29.69,6,0,9,0.22
2013-10-20,55,46,38,47,38,-100,99,81,62,29.91,29.83,4,0,11,0.22
2013-10-21,60,51,45,49,45,42,99,80,56,29.91,29.77,7,1,11,0.14
2013-10-22,48,42,35,48,36,32,99,82,61,29.89,29.78,7,1,9,0.01
2013-10-23,43,38,33,42,36,32,99,91,73,29.85,29.70,2,0,8,0.21
2013-10-24,37,33,31,37,33,31,99,99,99,30.06,29.83,4,0,8,0.34
2013-11-17,59,56,49,59,55,43,99,97,78,29.87,29.36,14,5,30,0.23
2013-11-18,49,41,34,43,37,29,96,85,76,30.01,29.51,15,6,24,0.11
2013-11-19,38,33,26,32,28,25,99,82,69,30.33,30.02,6,1,9,0.00
2013-11-20,45,33,24,30,25,21,99,76,43,30.37,30.23,11,2,15,0.00
2013-11-21,43,39,36,43,34,22,99,84,56,30.29,30.13,7,1,11,0.06
2013-11-22,47,42,33,47,42,33,99,99,99,30.24,30.05,7,2,15,0.20
2013-11-23,33,27,19,33,22,-100,99,88,71,30.29,30.12,15,3,19,0.01
2013-11-24,21,19,18,19,15,11,98,82,71,30.42,30.29,9,3,16,0.00
2013-11-25,31,24,16,24,19,15,99,83,63,30.36,30.07,5,1,11,0.00
2013-11-26,33,31,29,33,30,24,99,97,74,30.07,29.75,4,0,9,0.03
2013-11-27,31,27,22,31,26,18,99,95,85,30.02,29.71,8,1,15,0.03
2013-11-28,30,24,17,26,22,16,99,91,76,30.31,30.03,5,0,10,0.00
2013-11-29,34,27,21,29,25,21,99,92,78,30.55,30.32,0,0,0,0.00
2013-11-30,39,30,23,31,24,-100,97,85,71,30.50,30.09,7,1,11,0.00
2013-12-1,39,33,30,34,32,29,99,93,81,30.08,29.89,0,0,6,0.10
2013-12-2,38,33,30,37,33,30,99,98,91,29.88,29.78,1,0,6,0.01
2013-12-3,44,36,29,42,36,29,99,98,93,29.84,29.79,5,0,9,0.00
2013-12-4,55,47,40,53,47,40,99,97,91,29.88,29.73,7,2,10,0.00
2013-12-5,59,47,31,59,47,31,99,98,88,30.03,29.69,7,2,14,0.01
2013-12-6,33,29,25,33,29,25,99,98,90,30.22,30.01,4,0,7,0.01
2013-12-7,25,21,18,25,17,-100,99,89,80,30.48,30.23,6,0,12,0.00
2013-12-8,26,22,16,26,19,15,99,91,76,30.47,29.94,8,1,15,0.00
2013-12-9,32,29,23,32,28,21,99,96,91,30.03,29.82,8,2,15,0.00
2013-12-10,26,22,19,21,16,12,93,80,59,30.11,29.88,9,3,20,0.00
2013-12-11,23,20,16,23,18,14,99,94,81,30.28,30.12,6,2,11,0.00
2013-12-12,18,14,9,15,9,6,99,79,61,30.32,30.11,9,2,16,0.00
2013-12-13,29,22,15,20,15,7,81,74,70,30.14,30.08,6,1,14,0.00
2013-12-14,32,29,29,32,25,-100,99,94,99,29.81,29.57,6,0,7,0.00
2013-12-18,28,24,22,28,24,21,99,96,88,30.05,29.90,7,1,14,0.00
2013-12-19,43,36,27,39,31,23,96,83,72,29.95,29.87,5,0,9,0.26
2013-12-20,51,43,39,51,43,38,99,97,83,29.88,29.74,8,1,11,0.23
2013-12-21,53,45,37,53,43,-100,99,97,99,29.75,29.45,7,1,10,1.87
2013-12-22,56,47,36,56,47,36,99,99,99,29.89,29.38,11,3,21,0.28
2013-12-23,37,31,26,37,31,25,99,99,97,30.22,29.90,10,3,14,0.05
2013-12-24,26,17,14,25,17,14,99,99,96,30.42,30.17,8,2,12,0.00